TimeCET,TemperatureF,Dew PointF,Humidity,Sea Level PressureIn,VisibilityMPH,Wind Direction,Wind SpeedMPH,Gust SpeedMPH,PrecipitationIn,Events,Conditions,WindDirDegrees,DateUTC
1:00 AM,50,46,80,30.02,,ENE,2.3,,,,,70,2014-01-14 00:00:00
4:00 AM,48,43,78,30.01,,ENE,5.8,,,,,70,2014-01-14 03:00:00
5:50 AM,46.4,42.8,87,29.98,6.2,NE,5.8,-,N/A,,Scattered Clouds,50,2014-01-14 04:50:00
6:50 AM,46.4,42.8,87,29.98,6.2,NNE,3.5,-,N/A,,Partly Cloudy,30,2014-01-14 05:50:00
7:00 AM,47,43,82,29.99,,ENE,5.8,,,,,60,2014-01-14 06:00:00
7:50 AM,50.0,44.6,82,29.98,6.2,East,4.6,-,N/A,,Partly Cloudy,80,2014-01-14 06:50:00
8:50 AM,55.4,48.2,77,29.98,-9999.0,ESE,3.5,-,N/A,,Clear,120,2014-01-14 07:50:00
9:50 AM,59.0,51.8,77,29.98,-9999.0,South,5.8,-,N/A,,Clear,190,2014-01-14 08:50:00
10:50 AM,59.0,51.8,77,29.95,-9999.0,South,6.9,-,N/A,,Clear,180,2014-01-14 09:50:00
11:50 AM,59.0,51.8,77,29.95,-9999.0,SSW,15.0,-,N/A,,Clear,210,2014-01-14 10:50:00
12:50 PM,59.0,53.6,82,29.92,-9999.0,South,9.2,-,N/A,,Clear,190,2014-01-14 11:50:00
1:00 PM,60,53,72,29.93,,South,8.1,,,,,190,2014-01-14 12:00:00
1:50 PM,59.0,51.8,77,29.89,6.2,South,9.2,-,N/A,,Scattered Clouds,190,2014-01-14 12:50:00
2:50 PM,59.0,51.8,77,29.89,6.2,South,9.2,-,N/A,,Scattered Clouds,190,2014-01-14 13:50:00
3:50 PM,59.0,51.8,77,29.89,6.2,SSW,9.2,-,N/A,,Scattered Clouds,200,2014-01-14 14:50:00
4:00 PM,58,51,71,29.91,,SSW,10.4,,,,,200,2014-01-14 15:00:00
4:50 PM,57.2,51.8,82,29.89,6.2,South,8.1,-,N/A,,Mostly Cloudy,190,2014-01-14 15:50:00
5:50 PM,57.2,50.0,77,29.89,6.2,SSE,4.6,-,N/A,,Scattered Clouds,150,2014-01-14 16:50:00
6:50 PM,57.2,50.0,77,29.89,6.2,Variable,2.3,-,N/A,,Scattered Clouds,0,2014-01-14 17:50:00
7:00 PM,57,51,72,29.91,,ESE,2.3,,,,,110,2014-01-14 18:00:00
7:50 PM,55.4,50.0,82,29.89,6.2,ENE,3.5,-,N/A,Thunderstorm,Scattered Clouds,70,2014-01-14 18:50:00
8:50 PM,57.2,53.6,88,29.89,6.2,SE,4.6,-,N/A,Thunderstorm,Scattered Clouds,140,2014-01-14 19:50:00
9:50 PM,57.2,51.8,82,29.89,6.2,Variable,1.2,-,N/A,Rain,Light Rain,0,2014-01-14 20:50:00
10:00 PM,56,53,84,29.91,,SW,1.2,,,,,230,2014-01-14 21:00:00
10:50 PM,55.4,51.8,88,29.89,6.2,SE,8.1,-,N/A,Rain,Light Rain,140,2014-01-14 21:50:00
11:50 PM,55.4,51.8,88,29.89,6.2,SSE,5.8,-,N/A,Rain,Light Rain,150,2014-01-14 22:50:00